Previsão horária em Aarau

Hoje, 23 Janeiro, Sábado

Tempo Temperatura Precipitação Vento Pressão Humidade
00:00 +2°C° 1.8 mm 3 m/s 709 mmHg 98%
01:00 0°C° 1.8 mm 4 m/s 710 mmHg 98%
02:00 0°C° 1 mm 4 m/s 710 mmHg 98%
03:00 -1°C° 1 mm 4 m/s 711 mmHg 98%
04:00 0°C° 1 mm 3 m/s 712 mmHg 97%
05:00 0°C° 0.3 mm 3 m/s 712 mmHg 97%
06:00 +1°C° 0.3 mm 2 m/s 712 mmHg 97%
07:00 +2°C° 0.3 mm 1 m/s 713 mmHg 97%
08:00 +2°C° 0 mm 1 m/s 712 mmHg 95%
09:00 +2°C° 0 mm 1 m/s 712 mmHg 94%
10:00 +2°C° 0 mm 1 m/s 712 mmHg 92%
11:00 +3°C° 0 mm 1 m/s 712 mmHg 91%
12:00 +4°C° 0 mm 1 m/s 711 mmHg 90%
13:00 +5°C° 0 mm 1 m/s 711 mmHg 88%
14:00 +4°C° 0 mm 1 m/s 711 mmHg 90%
15:00 +4°C° 0 mm 1 m/s 710 mmHg 91%
16:00 +4°C° 0 mm 1 m/s 710 mmHg 93%
17:00 +2°C° 0 mm 1 m/s 710 mmHg 93%
18:00 +1°C° 0 mm 1 m/s 710 mmHg 92%
19:00 -1°C° 0 mm 0 m/s 710 mmHg 92%
20:00 -1°C° 0 mm 0 m/s 711 mmHg 92%
21:00 -1°C° 0 mm 0 m/s 711 mmHg 92%
22:00 0°C° 0 mm 0 m/s 711 mmHg 92%
23:00 +1°C° 0.3 mm 1 m/s 711 mmHg 94%

Amanhã, 24 Janeiro, Domingo

Tempo Temperatura Precipitação Vento Pressão Humidade
00:00 -1°C° 0.3 mm 2 m/s 711 mmHg 95%
01:00 -1°C° 0.3 mm 2 m/s 712 mmHg 97%
02:00 -1°C° 0.3 mm 3 m/s 712 mmHg 95%
03:00 -1°C° 0.3 mm 3 m/s 712 mmHg 94%
04:00 -1°C° 0.3 mm 3 m/s 712 mmHg 92%
05:00 -1°C° 0.2 mm 3 m/s 713 mmHg 93%
06:00 -2°C° 0.2 mm 2 m/s 714 mmHg 94%
07:00 -2°C° 0.2 mm 2 m/s 714 mmHg 95%
08:00 -2°C° 0.1 mm 2 m/s 715 mmHg 94%
09:00 -1°C° 0.1 mm 2 m/s 715 mmHg 92%
10:00 +1°C° 0.1 mm 1 m/s 715 mmHg 90%
11:00 +2°C° 0 mm 1 m/s 715 mmHg 87%
12:00 +2°C° 0 mm 1 m/s 715 mmHg 84%
13:00 +3°C° 0 mm 1 m/s 714 mmHg 82%
14:00 +3°C° 0 mm 1 m/s 714 mmHg 84%
15:00 +3°C° 0 mm 1 m/s 714 mmHg 86%
16:00 +2°C° 0 mm 0 m/s 713 mmHg 88%
17:00 +2°C° 0 mm 1 m/s 714 mmHg 89%
18:00 +1°C° 0 mm 1 m/s 714 mmHg 91%
19:00 +1°C° 0 mm 1 m/s 714 mmHg 92%
20:00 +1°C° 0.1 mm 1 m/s 714 mmHg 93%
21:00 -1°C° 0.1 mm 2 m/s 714 mmHg 94%
22:00 -2°C° 0.1 mm 2 m/s 714 mmHg 95%
23:00 -2°C° 0.5 mm 2 m/s 714 mmHg 95%

Depois de amanhã, 25 Janeiro, Segunda-feira

Tempo Temperatura Precipitação Vento Pressão Humidade
00:00 -2°C° 0.5 mm 2 m/s 715 mmHg 95%
01:00 -2°C° 0.5 mm 2 m/s 715 mmHg 95%
02:00 -2°C° 0.5 mm 2 m/s 715 mmHg 95%
03:00 -2°C° 0.5 mm 3 m/s 716 mmHg 95%
04:00 -2°C° 0.5 mm 3 m/s 716 mmHg 95%
05:00 -3°C° 0.3 mm 4 m/s 717 mmHg 94%
06:00 -3°C° 0.3 mm 4 m/s 718 mmHg 93%
07:00 -5°C° 0.3 mm 5 m/s 719 mmHg 92%
08:00 -4°C° 0.3 mm 5 m/s 719 mmHg 92%
09:00 -4°C° 0.3 mm 5 m/s 720 mmHg 92%
10:00 -4°C° 0.3 mm 5 m/s 721 mmHg 92%
11:00 -2°C° 0.1 mm 5 m/s 721 mmHg 88%
12:00 -2°C° 0.1 mm 5 m/s 722 mmHg 84%
13:00 -1°C° 0.1 mm 5 m/s 722 mmHg 80%
14:00 -1°C° 0.2 mm 5 m/s 722 mmHg 83%
15:00 -2°C° 0.2 mm 5 m/s 722 mmHg 86%
16:00 -2°C° 0.2 mm 5 m/s 722 mmHg 88%
17:00 -2°C° 0.2 mm 5 m/s 723 mmHg 89%
18:00 -2°C° 0.2 mm 5 m/s 723 mmHg 90%
19:00 -2°C° 0.2 mm 5 m/s 724 mmHg 90%
20:00 -2°C° 0.2 mm 5 m/s 724 mmHg 90%
21:00 -4°C° 0.2 mm 5 m/s 724 mmHg 90%
22:00 -4°C° 0.2 mm 5 m/s 725 mmHg 90%
23:00 -3°C° 0.2 mm 4 m/s 725 mmHg 91%

26 Janeiro, Terça-feira

Tempo Temperatura Precipitação Vento Pressão Humidade
00:00 -3°C° 0.2 mm 4 m/s 725 mmHg 92%
01:00 -2°C° 0.2 mm 3 m/s 726 mmHg 94%
02:00 -2°C° 0.1 mm 3 m/s 726 mmHg 93%
03:00 -2°C° 0.1 mm 3 m/s 726 mmHg 93%
04:00 -2°C° 0.1 mm 2 m/s 726 mmHg 92%
05:00 -2°C° 0.1 mm 2 m/s 726 mmHg 93%
06:00 -2°C° 0.1 mm 2 m/s 726 mmHg 94%
07:00 -2°C° 0.1 mm 2 m/s 727 mmHg 95%
08:00 -2°C° 0.2 mm 2 m/s 727 mmHg 94%
09:00 -1°C° 0.2 mm 3 m/s 727 mmHg 93%
10:00 -1°C° 0.2 mm 3 m/s 727 mmHg 91%
11:00 0°C° 0 mm 3 m/s 727 mmHg 90%
12:00 +1°C° 0 mm 3 m/s 727 mmHg 89%
13:00 +1°C° 0 mm 3 m/s 727 mmHg 87%
14:00 +2°C° 0 mm 2 m/s 727 mmHg 88%
15:00 +2°C° 0 mm 2 m/s 727 mmHg 90%
16:00 +3°C° 0 mm 1 m/s 726 mmHg 91%
17:00 +2°C° 0 mm 1 m/s 726 mmHg 92%
18:00 +2°C° 0 mm 1 m/s 726 mmHg 93%
19:00 +1°C° 0 mm 1 m/s 726 mmHg 93%
20:00 +1°C° 0.2 mm 1 m/s 726 mmHg 94%
21:00 +1°C° 0.2 mm 1 m/s 726 mmHg 95%
22:00 +1°C° 0.2 mm 1 m/s 726 mmHg 96%
23:00 -1°C° 0.2 mm 2 m/s 726 mmHg 96%

27 Janeiro, Quarta-feira

Tempo Temperatura Precipitação Vento Pressão Humidade
00:00 -1°C° 0.2 mm 2 m/s 725 mmHg 95%
01:00 -1°C° 0.2 mm 2 m/s 725 mmHg 95%
02:00 0°C° 0 mm 3 m/s 724 mmHg 95%
03:00 +1°C° 0 mm 3 m/s 724 mmHg 95%
04:00 +1°C° 0 mm 4 m/s 723 mmHg 95%
05:00 +1°C° 0.1 mm 4 m/s 724 mmHg 96%
06:00 +1°C° 0.1 mm 4 m/s 724 mmHg 96%
07:00 +3°C° 0.1 mm 4 m/s 724 mmHg 97%
08:00 +3°C° 0.2 mm 4 m/s 725 mmHg 97%
09:00 +3°C° 0.2 mm 4 m/s 725 mmHg 97%
10:00 +3°C° 0.2 mm 4 m/s 726 mmHg 97%
11:00 +3°C° 0.1 mm 4 m/s 726 mmHg 96%
12:00 +4°C° 0.1 mm 4 m/s 727 mmHg 94%
13:00 +4°C° 0.1 mm 4 m/s 727 mmHg 93%
14:00 +4°C° 0.1 mm 4 m/s 727 mmHg 93%
15:00 +4°C° 0.1 mm 3 m/s 728 mmHg 93%
16:00 +4°C° 0.1 mm 3 m/s 728 mmHg 93%
17:00 +4°C° 0 mm 2 m/s 728 mmHg 93%
18:00 +3°C° 0 mm 2 m/s 729 mmHg 93%
19:00 +3°C° 0 mm 2 m/s 729 mmHg 93%
20:00 +2°C° 0 mm 2 m/s 729 mmHg 93%
21:00 +3°C° 0 mm 1 m/s 729 mmHg 93%
22:00 +2°C° 0 mm 1 m/s 729 mmHg 92%
23:00 +2°C° 0 mm 1 m/s 729 mmHg 92%

28 Janeiro, Quinta-feira

Tempo Temperatura Precipitação Vento Pressão Humidade
00:00 +2°C° 0 mm 1 m/s 728 mmHg 91%
01:00 +2°C° 0 mm 1 m/s 727 mmHg 90%
02:00 +2°C° 0 mm 1 m/s 727 mmHg 89%
03:00 +2°C° 0 mm 1 m/s 726 mmHg 88%
04:00 +3°C° 0 mm 1 m/s 726 mmHg 88%
05:00 +2°C° 0.3 mm 2 m/s 726 mmHg 89%
06:00 +2°C° 0.3 mm 2 m/s 725 mmHg 90%
07:00 +3°C° 0.3 mm 2 m/s 725 mmHg 91%
08:00 +2°C° 0.2 mm 3 m/s 725 mmHg 92%
09:00 +3°C° 0.2 mm 3 m/s 725 mmHg 92%
10:00 +4°C° 0.2 mm 3 m/s 725 mmHg 92%
11:00 +5°C° 0 mm 4 m/s 725 mmHg 90%
12:00 +6°C° 0 mm 4 m/s 724 mmHg 88%
13:00 +7°C° 0 mm 5 m/s 724 mmHg 87%
14:00 +7°C° 0.3 mm 5 m/s 724 mmHg 87%
15:00 +6°C° 0.3 mm 5 m/s 723 mmHg 88%
16:00 +6°C° 0.3 mm 5 m/s 723 mmHg 89%
17:00 +5°C° 1.4 mm 5 m/s 723 mmHg 90%
18:00 +5°C° 1.4 mm 4 m/s 724 mmHg 92%
19:00 +5°C° 1.4 mm 4 m/s 724 mmHg 93%
Mostrar mais